Location: Almena City Lake
(39.8850°N, 99.6804°W)
Time: 18:55:39
(UTC+00:00)

STARLINK-1108 - Pass Details

Date: 18 February 2020
Orbit: 548 x 551 km, 53.0° (Epoch: 06 April)

Event Time Altitude Azimuth Distance (km) Brightness Sun altitude
Exits shadow 11:51:02 35° 322° (NW) 903 4.4 -19.3°
Maximum altitude 11:51:15 35° 330° (NNW) 898 4.4 -19.2°
Drops below altitude 10° 11:55:06 10° 37° (NE) 1,832 6.8 -18.5°
Sets 11:57:30 0° 46° (NE) 2,729 7.9 -18.0°
